Flag for U.S.A. Weather past 2 weeks in Cleveland, Ohio, U.S.A.

Now
65 °F

Mostly cloudy.


Feels Like: 65 °F
Forecast: 62 / 70 °F
Wind: 22 mph from Northwest

Location: Cleveland-Hopkins International Airport

Current Time: Jul 28, 2014 at 12:26:05 PM

Latest Report: Jul 28, 2014 at 11:51 AM


Visibility: 10 mi

Pressure: 29.84 "Hg

Humidity: 76%

Dew point: 57 °F

Location of ClevelandLocation

Historic Weather in Cleveland — Graph

°F

Cleveland temperature yesterday

Maximum temperature yesterday: 80 °F (at 1:58 PM)
Minimum temperature yesterday: 64 °F (at 8:55 PM)
Average temperature yesterday: 72 °F

Past Weeks' High & Low Weather Summary

 TemperatureHumidityPressure
High85 °F (Jul 22, 12:51 PM)97% (Jul 20, 5:59 AM)30.26 "Hg (Jul 20, 5:59 AM)
Low51 °F (Jul 18, 5:51 AM)30% (Jul 14, 6:51 PM)29.61 "Hg (Jul 27, 7:51 PM)
Average69 °F73%29.99 "Hg
* Reported Jul 13 10:51 AM — Jul 28 10:51 AM, Cleveland, Weather by CustomWeather, © 2014

Note: Actual official high and low records may vary slightly from our data, if they occured in-between our weather recording intervals... More about our weather records

Advertising

Cleveland weather history for previous 24 hours

 ConditionsComfort  
Time TempWeatherWind HumidityBarometerVisibility
10:51 AM
Jul 28
65 °FCloudy.20 mph78%29.81 "Hg10 mi
9:51 AM65 °FCloudy.23 mph81%29.78 "Hg10 mi
8:51 AM66 °FCloudy.17 mph84%29.74 "Hg10 mi
7:51 AM64 °FFog.14 mph90%29.71 "Hg6 mi
6:51 AM63 °FLight rain. Fog.8 mph93%29.71 "Hg4 mi
5:51 AM63 °FMostly cloudy.9 mph93%29.70 "Hg10 mi
4:51 AM62 °FMostly cloudy.7 mph93%29.69 "Hg10 mi
3:51 AM65 °FOvercast.8 mph85%29.69 "Hg10 mi
2:51 AM63 °FMostly cloudy.14 mph90%29.68 "Hg10 mi
1:52 AM64 °FThunderstorms. Fog.9 mph94%29.68 "Hg3 mi
1:00 AM64 °FPassing clouds.8 mph97%29.68 "Hg10 mi
11:51 PM
Jul 27
65 °FPassing clouds.7 mph94%29.66 "Hg10 mi
10:51 PM66 °FPartly cloudy.6 mph87%29.67 "Hg10 mi
9:57 PM65 °FPartly cloudy.9 mph94%29.69 "Hg10 mi
9:04 PM64 °FStrong thunderstorms. Fog.10 mph94%29.69 "Hg6 mi
8:55 PM64 °FStrong thunderstorms. Fog.9 mph94%29.69 "Hg2 mi
7:51 PM73 °FOvercast.9 mph76%29.61 "Hg10 mi
6:51 PM71 °FLight rain. Mostly cloudy.7 mph87%29.63 "Hg10 mi
5:51 PM71 °FLight rain. Mostly cloudy.9 mph87%29.63 "Hg10 mi
4:55 PM70 °FMostly cloudy.No wind90%29.65 "Hg10 mi
4:04 PM74 °FThunderstorms. Mostly cloudy.21 mph91%29.69 "Hg2 mi
3:58 PM74 °FThunderstorms. Cloudy.9 mph74%29.68 "Hg1 mi
2:51 PM80 °FMore clouds than sun.10 mph71%29.68 "Hg9 mi
1:58 PM80 °FMostly cloudy.9 mph69%29.73 "Hg8 mi
12:51 PM79 °FScattered clouds.12 mph72%29.73 "Hg8 mi
12:04 PM79 °FCloudy.9 mph72%29.78 "Hg9 mi
Weather by CustomWeather, © 2014

See weather overviewHow to use our weather pages